Weather History for Yellowstone, WY

Change the Weather History Date:

Saturday, January 26, 2013

  Actual Average Record
Temperature  
Mean Temperature 32 °F 12 °F  
Max Temperature 36 °F 24 °F 36 °F (2013)
Min Temperature 27 °F 1 °F -10 °F (2004)
Degree Days  
Heating Degree Days 33 52  
Month to date heating degree days 1504 1352  
Since 1 July heating degree days 6172 6262  
Cooling Degree Days 0 0  
Month to date cooling degree days 0 0  
Year to date cooling degree days 0 0  
Moisture  
Dew Point 27 °F    
Average Humidity 88    
Maximum Humidity 100    
Minimum Humidity 75    
Precipitation  
Precipitation 0.12 in 0.05 in 0.16 in (2012)
Month to date precipitation 0.93 1.90  
Year to date precipitation 0.93 1.90  
Sea Level Pressure  
Sea Level Pressure 29.92 in    
Wind  
Wind Speed 0 mph (North)    
Max Wind Speed 6 mph    
Max Gust Speed 15 mph    
T = Trace of Precipitation, MM = Missing Value Source: NWS Daily Summary

Daily Weather History Graph

Daily Weather History Graph

Search for Another Location

Airport:

Trip Planner

Search our weather history database for the weather conditions in past years. The results will help you decide how hot, cold, wet, or windy it might be!

Date:

Astronomy

Jan. 26, 2013 Rise Set
Actual Time 7:46 AM MST 5:22 PM MST
Civil Twilight 7:14 AM MST 5:54 PM MST
Nautical Twilight 6:39 AM MST 6:29 PM MST
Astronomical Twilight 6:05 AM MST 7:04 PM MST
Moon 5:23 PM MST (1/26) 7:04 AM MST (1/26)
Length of Visible Light 10h 39m
Length of Day
9h 36m
Full, 100% of the Moon is Illuminated
Jan 26
Full
Jan 26
Full
Feb 3
Last Quarter
Feb 10
New
Feb 17
First Quarter

Hourly Weather History & Observations

Time (MST) Temp. Windchill Dew Point Humidity Pressure Visibility Wind Dir Wind Speed Gust Speed Precip Events Conditions
12:56 AM 28.9 °F - 21.9 °F 75% 30.07 in - Calm Calm - N/A   Unknown
1:56 AM 28.9 °F - 23.0 °F 78% 30.06 in - Calm Calm - N/A   Unknown
2:56 AM 28.0 °F - 25.0 °F 88% 30.05 in - Calm Calm - 0.01 in   Unknown
3:56 AM 28.0 °F - 24.1 °F 85% 30.03 in - Calm Calm - N/A   Unknown
4:56 AM 27.0 °F - 25.0 °F 92% 30.01 in - Calm Calm - N/A   Unknown
5:56 AM 27.0 °F - 25.0 °F 92% 30.00 in - Calm Calm - 0.02 in   Unknown
6:56 AM 27.0 °F - 25.0 °F 92% 30.01 in - Calm Calm - 0.02 in   Unknown
7:56 AM 27.0 °F - 25.0 °F 92% 30.00 in - Calm Calm - 0.03 in   Unknown
8:56 AM 28.0 °F - 26.1 °F 92% 29.99 in - Calm Calm - 0.02 in   Unknown
9:56 AM 28.9 °F - 27.0 °F 92% 29.99 in - Calm Calm - N/A   Unknown
10:56 AM 30.0 °F - 28.0 °F 92% 29.97 in - Calm Calm - 0.01 in   Unknown
11:56 AM 32.0 °F - 28.9 °F 88% 29.94 in - Calm Calm - N/A   Unknown
12:56 PM 34.0 °F - 30.0 °F 85% 29.89 in - Calm Calm - N/A   Unknown
1:56 PM 34.0 °F 31.0 °F 30.0 °F 85% 29.87 in - Variable 3.5 mph - N/A   Unknown
2:56 PM 34.0 °F - 30.0 °F 85% 29.86 in - Calm Calm - N/A   Unknown
3:56 PM 34.0 °F - 28.9 °F 82% 29.85 in - Calm Calm - N/A   Unknown
4:56 PM 33.1 °F - 28.9 °F 85% 29.85 in - Calm Calm - N/A   Unknown
5:56 PM 32.0 °F 27.5 °F 28.0 °F 85% 29.84 in - Variable 4.6 mph - N/A   Unknown
6:56 PM 28.9 °F - 27.0 °F 92% 29.85 in - Calm Calm - N/A   Unknown
7:56 PM 30.0 °F - 28.0 °F 92% 29.83 in - Calm Calm - 0.01 in   Unknown
8:56 PM 28.9 °F - 28.0 °F 96% 29.81 in - Calm Calm - N/A   Unknown
9:56 PM 30.0 °F - 28.0 °F 92% 29.79 in - Calm Calm - N/A   Unknown
10:56 PM 30.0 °F - 27.0 °F 88% 29.80 in - Calm Calm - N/A   Unknown
11:56 PM 30.0 °F - 27.0 °F 88% 29.79 in - Calm Calm - N/A   Unknown